Hobart, OK

11:42 PM CDT on March 28, 2017 (GMT -0500)
Hobart Municipal

Weather History for KHBR - September, 2012

Change the Weather History Date:

Wednesday, September 19, 2012

  Actual Average Record
Temperature  
Mean Temperature 73 °F -  
Max Temperature 91 °F 83 °F 97 °F (2000)
Min Temperature 55 °F 59 °F 46 °F (2003)
Cooling Degree Days 8    
Growing Degree Days 23 (Base 50)    
Moisture  
Dew Point 48 °F    
Average Humidity 43    
Maximum Humidity 62    
Minimum Humidity 26    
Precipitation  
Precipitation 0.00 in - - ()
Sea Level Pressure  
Sea Level Pressure 30.01 in    
Wind  
Wind Speed 14 mph (SSW)    
Max Wind Speed 23 mph    
Max Gust Speed 33 mph    
Visibility 10 miles    
Events      
Averages and records for this station are not official NWS values.
T = Trace of Precipitation, MM = Missing Value Source: NWS Daily Summary

Daily Weather History Graph

Daily Weather History Graph

Search for Another Location

Airport or City:

Trip Planner

Search our weather history database for the weather conditions in past years. The results will help you decide how hot, cold, wet, or windy it might be!

Date:

Astronomy

Sep. 19, 2012 Rise Set
Actual Time 7:22 AM CDT 7:36 PM CDT
Civil Twilight 6:57 AM CDT 8:01 PM CDT
Nautical Twilight 6:27 AM CDT 8:31 PM CDT
Astronomical Twilight 5:57 AM CDT 9:01 PM CDT
Moon 11:22 AM CDT (9/19) 9:59 PM CDT (9/19)
Length of Visible Light 13h 04m
Length of Day
12h 14m
Waxing Crescent, 17% of the Moon is Illuminated
Sep 19
Waxing Crescent
Sep 22
First Quarter
Sep 29
Full
Oct 8
Last Quarter
Oct 15
New

Hourly Weather History & Observations

Time (CDT) Temp. Heat Index Dew Point Humidity Pressure Visibility Wind Dir Wind Speed Gust Speed Precip Events Conditions
12:53 AM 57.9 °F - 41.0 °F 53% 30.06 in 10.0 mi South 10.4 mph - N/A   Clear
1:53 AM 57.0 °F - 41.0 °F 55% 30.06 in 10.0 mi SSW 9.2 mph - N/A   Clear
2:53 AM 55.9 °F - 39.9 °F 55% 30.05 in 10.0 mi SSW 9.2 mph - N/A   Clear
3:53 AM 57.9 °F - 39.9 °F 51% 30.04 in 10.0 mi SSW 10.4 mph - N/A   Clear
4:53 AM 55.0 °F - 42.1 °F 62% 30.04 in 10.0 mi South 10.4 mph - N/A   Clear
5:53 AM 55.0 °F - 42.1 °F 62% 30.06 in 10.0 mi SW 11.5 mph - N/A   Clear
6:53 AM 55.9 °F - 41.0 °F 57% 30.06 in 10.0 mi SSW 11.5 mph - N/A   Clear
7:53 AM 57.0 °F - 42.1 °F 57% 30.08 in 10.0 mi SW 12.7 mph - N/A   Clear
8:53 AM 64.9 °F - 43.0 °F 45% 30.08 in 10.0 mi SW 19.6 mph - N/A   Clear
9:53 AM 72.0 °F - 39.9 °F 31% 30.08 in 10.0 mi SSW 21.9 mph 28.8 mph N/A   Clear
10:53 AM 77.0 °F - 45.0 °F 32% 30.07 in 10.0 mi SW 23.0 mph 28.8 mph N/A   Clear
11:53 AM 81.0 °F - 48.9 °F 33% 30.05 in 10.0 mi SSW 20.7 mph 28.8 mph N/A   Clear
12:53 PM 84.9 °F - 51.1 °F 31% 30.03 in 10.0 mi SSW 21.9 mph 29.9 mph N/A   Clear
1:53 PM 88.0 °F 85.7 °F 53.1 °F 30% 30.00 in 10.0 mi SW 21.9 mph 33.4 mph N/A   Clear
2:53 PM 89.1 °F 86.9 °F 54.0 °F 30% 29.97 in 10.0 mi SW 19.6 mph 26.5 mph N/A   Clear
3:53 PM 90.0 °F 87.7 °F 54.0 °F 29% 29.95 in 10.0 mi SSW 16.1 mph 29.9 mph N/A   Clear
4:53 PM 91.0 °F - 52.0 °F 26% 29.93 in 10.0 mi SSW 17.3 mph 27.6 mph N/A   Clear
5:53 PM 89.1 °F - 52.0 °F 28% 29.93 in 10.0 mi SW 21.9 mph 26.5 mph N/A   Clear
6:53 PM 87.1 °F 84.9 °F 53.1 °F 31% 29.93 in 10.0 mi SW 18.4 mph - N/A   Clear
7:53 PM 82.0 °F 81.3 °F 54.0 °F 38% 29.94 in 10.0 mi SSW 12.7 mph - N/A   Clear
8:53 PM 78.1 °F - 54.0 °F 43% 29.96 in 10.0 mi South 12.7 mph - N/A   Clear
9:53 PM 73.9 °F - 53.1 °F 48% 29.97 in 10.0 mi SSW 10.4 mph - N/A   Clear
10:53 PM 73.0 °F - 54.0 °F 51% 29.96 in 10.0 mi South 15.0 mph - N/A   Clear
11:53 PM 70.0 °F - 54.0 °F 57% 29.96 in 10.0 mi South 13.8 mph - N/A   Clear